Regional Weather Roundup
Issued by NWS

Home | Current Version | Previous Version | Text Only | Print | Product List | Glossary On
Versions: 1 2 3 4 5 6 7 8 9 10 11 12 13 14 15 16 17 18 19 20 21 22 23 24 25 26 27 28 29 30 31 32 33 34 35 36 37 38 39 40 41 42 43 44 45 46 47 48 49 50
000
ASUS44 KEWX 240811
RWRTX
SOUTH TEXAS REGIONAL WEATHER ROUNDUP
NATIONAL WEATHER SERVICE AUSTIN/SAN ANTONIO TX
200 AM CST TUE JAN 24 2017

NOTE: "FAIR" INDICATED FEW OR NO CLOUDS BELOW 12,000 FEET WITH NO
SIGNIFICANT WEATHER AND/OR OBSTRUCTIONS TO VISIBILITY.

* - THESE STATIONS ARE NOT NWS OR FAA STATIONS...AND ARE NOT SUBJECT
    TO NWS AND FAA QUALITY CONTROL.

TXZ171-172-183>190-240900-
TEXAS HILL COUNTRY AND EDWARDS PLATEAU

CITY           SKY/WX    TMP DP  RH WIND       PRES   REMARKS
JUNCTION       PTCLDY    52  33  48 NE5       29.74F
*LLANO         CLEAR     52  36  54 CALM      29.79F
BURNET         CLEAR     54  33  45 S6        29.78F
*HORSESHOE BAY CLEAR     58  33  39 S7        29.77F
*KERRVILLE     PTCLDY    49  38  67 SE10      29.79F WCI  44
*FREDERICKSBRG CLEAR     55  30  38 CALM      29.78F
*ROCKSPRINGS   PTCLDY    57  32  38 S12       29.79F
*BOERNE STAGE  CLEAR     46  36  66 S3        29.82F
*CASTROVILLE   CLEAR     50  36  59 E5        29.81F WCI  48
HONDO          PTCLDY    48  35  60 NE5       29.80F WCI  46
*UVALDE        PTCLDY    50  34  53 E10       29.78F WCI  46
DEL RIO        CLEAR     59  32  36 E12       29.72F
LAUGHLIN AFB   NOT AVBL
CARRIZO SPRGS  CLEAR     48  32  53 E3        29.74F
*EAGLE PASS    SUNNY     48  32  53 E5        29.74S WCI  46
$$

TXZ173-191>194-202-209-217>225-228-240900-
CENTRAL AND SOUTH CENTRAL TEXAS

CITY           SKY/WX    TMP DP  RH WIND       PRES   REMARKS
GEORGETOWN     CLEAR     57  36  44 S14       29.78F
AUSTIN/BERGSTM PTCLDY    52  39  61 S8        29.80F
AUSTIN/MABRY   CLEAR     55  37  50 S3        29.80F
*AUSTIN/EXEC   CLEAR     52  37  58 CALM      29.80
*LAGO VISTA    CLEAR     59  36  41 S10G17    29.79F
SAN MARCOS     CLEAR     48  37  66 SW7       29.82S WCI  45
NEW BRAUNFELS  CLEAR     51  38  60 W7        29.81S
RANDOLPH AFB   CLEAR     46  39  75 CALM      29.81F
PT SAN ANTONIO CLEAR     49  39  68 E5        29.78F WCI  47
SAN ANTONIO    CLEAR     53  39  59 S6        29.82S
STINSON FIELD  CLEAR     50  40  68 CALM      29.79F
*PLEASANTON    CLEAR     52  40  64 E5        29.80F
*LA GRANGE     CLEAR     51  47  86 S5        29.80F
*GIDDINGS      CLEAR     54  46  74 S8        29.82F
*GONZALES      CLEAR     55  49  81 S7        29.81F
$$

TXZ163>164-176>182-195>201-210>213-226-227-235-240900-
SOUTHEAST TEXAS

CITY           SKY/WX    TMP DP  RH WIND       PRES   REMARKS
COLLEGE STN    CLEAR     52  45  77 S8        29.81F
*BRYAN         CLEAR     54  44  68 S8        29.82F
*CALDWELL      NOT AVBL
*CROCKETT      CLEAR     50  39  66 CALM      29.85S
*BRENHAM       CLEAR     54  49  83 CALM      29.83S
HUNTSVILLE     CLEAR     55  42  61 S10       29.82F
CONROE         CLEAR     43  41  93 CALM      29.84F
HOUSTON BUSH   PTCLDY    57  47  69 S5        29.84F
HOUSTON HOBBY  PTCLDY    55  50  83 S8        29.84F
*HOUSTON SW AP CLEAR     52  50  93 SE3       29.86S
PEARLAND       CLEAR     57  50  77 S3        29.86F
HOUSTON HOOKS  CLEAR     51  44  77 CALM      29.84F
ELLINGTON FLD  PTCLDY    55  43  62 S5        29.87
SUGAR LAND       N/A     57  54  89 S9        29.84F
*HOUSTON EXEC  PTCLDY    54  52  94 S9        29.85S
*CLEVELAND MUN CLEAR     44  43  97 CALM      29.86S
*WHARTON       CLEAR     55  53  93 S7        29.85F
*COLUMBUS      FAIR      51  49  94 S3        29.84F
*EAGLE LAKE    SUNNY     55  55  97 S6        29.84S
$$

TXZ214>216-236>238-240900-
THE UPPER TEXAS COAST

CITY           SKY/WX    TMP DP  RH WIND       PRES   REMARKS
*ORANGE        CLEAR     48  47  95 CALM      29.88F
PORT ARTHUR    CLEAR     52  50  93 S5        29.86F
GALVESTON      CLEAR     64  58  80 S10       29.87F
ANGLETON       CLEAR     54  52  93 S7        29.86F
*BAY CITY      CLEAR     56  56  98 S5        29.86F
PALACIOS       CLEAR     61  57  87 S8        29.84F
$$

TXZ229>234-239>247-240900-
TEXAS COASTAL BEND AND RIO GRANDE PLAINS

CITY           SKY/WX    TMP DP  RH WIND       PRES   REMARKS
VICTORIA       CLEAR     53  51  93 S7        29.84F
*BEEVILLE      CLEAR     56  50  79 S9        29.82F
ROCKPORT         N/A     64  56  75 S8G18     29.84F
*PORT ARANSAS  CLEAR     63  59  85 S13       29.84F
*PORT LAVACA   CLEAR     56  56  99 CALM      29.84F
*INGLESIDE     CLEAR     64  58  81 S14       29.84F
CORPUS CHRISTI CLEAR     58  52  80 S12       29.83F
CORPUS NAS     CLEAR     62  59  90 S10       29.83F
*ROBSTOWN      CLEAR     56  50  79 S8        29.83F
ALICE          CLEAR     54  44  69 S8        29.82F
KINGSVILLE NAS NOT AVBL
COTULLA        CLEAR     58  33  39 SE10      29.76F
*FAITH RANCH   CLEAR     63  36  36 SE13G21   29.73F
LAREDO         CLEAR     61  38  42 SE15      29.77F
$$

TXZ248>255-240900-
DEEP SOUTH TEXAS

CITY           SKY/WX    TMP DP  RH WIND       PRES   REMARKS
BROWNSVILLE    CLEAR     62  59  90 SE9       29.85F
PORT ISABEL    CLEAR     63  59  87 S10       29.84F
*SOUTH PADRE   NOT AVBL
HARLINGEN      CLEAR     61  59  93 S10       29.84F
*HEBBRONVILLE  CLEAR     50  37  59 S6        29.81F WCI  48
MCALLEN        CLEAR     62  54  74 SE8       29.84F
*WESLACO       CLEAR     61  57  86 S9        29.83F
FALFURRIAS     CLEAR     54  48  81 S5        29.83F
EDINBURG       CLEAR     63  57  80 S7        29.83F
*ZAPATA        CLEAR     60  41  50 SE9       29.79F
$$

TXZ213>215-236>238-242>244-246-247-251-254-255-240900-
CMAN STATIONS

STATION/POSITION TIME  TEMP    WIND        PRES    WAVE
                       AIR SEA DIR/SP/G            HT/PER
                 (UTC) (F)     (DEG/KT/KT) (MB)    (FT/S)
SABINE PASS      0742   59 63  190/  5/  6 1012.5
SEA RIM ST PARK  0800   62     190/  6/  7 1011.8
NORTH JETTY/GLS  0742   65 62  200/ 10/ 13   N/A
EAGLE POINT      0742   60 62  230/  7/ 10 1011.0
MORGANS POINT    0748   60 64  200/  7/ 10 1010.7
PORT O`CONNOR    0742   64     160/  9/ 10 1010.3
PORT ARANSAS     0800   65 63  170/ 16/ 18 1010.2
MALAQUITE BEACH  0742   65 63  160/ 16/ 18 1010.8
BAFFIN BAY       0748   63 62  160/ 14/ 17 1010.2
PORT ISABEL      0748   66 66  160/ 10/ 12 1010.6
$$

GMZ080-GMZ150>470-240900-
OFFSHORE BUOY REPORTS

STATION/POSITION TIME  TEMP    WIND        PRES    WAVE
                       AIR SEA DIR/SP/G            HT/PER
                 (UTC) (F)     (DEG/KT/KT) (MB)    (FT/S)
20 E GALVESTON   0650   65 65  210/ 12/ 14 1011.7    1/ 4
90 E PT ARANSAS  0650   70 71  180/ 14/ 16 1012.0    2/ 3
35 NE PT MANSFLD 0650   71     180/ 19/ 21 1011.0    3/ 4
200 E PT ISABEL  0650   70 73  200/  4/  8 1013.9    3/ 6
$$




USA.gov is the U.S. government's official web portal to all federal, state and local government web resources and services.